SCP
0 0 0 0 0 0 0 -0 -0 0 0 0 0 0 0 0 -0 -0 -0 0 -0 -1 -1 -0 -0 -0 -0 -0 -0 -0 -0 -0
0 0 -0 -0 -0 0 0 0 0 0 0 0 0 -0 0 -0 -0 -0 0 0 -0 -1 -1 -0 -0 -0 -0 -0 -0 -0 -0 -0
0 0 -0 -0 0 0 0 -0 0 -0 0 -0 -0 0 -0 -0 -0 -0 0 0 0 -1 -1 -0 -0 -0 -0 -0 -0 -0 -0 -0
0 0 0 -0 0 0 0 0 0 0 0 0 -0 -0 0 -0 -0 -0 -0 0 0 -0 -0 -0 -0 -0 -0 -0 -0 -0 -0 -0
0 0 0 0 0 0 0 0 0 0 0 0 -0 0 0 0 -0 -0 -0 0 0 0 0 -0 -0 -0 -0 -0 -0 -0 -0 -0
0 0 0 -0 0 0 0 0 0 0 0 0 0 0 0 0 0 0 0 -0 0 0 0 0 0 -0 -0 -0 0 0 -0 -0
0 0 0 -0 0 0 0 0 0 0 0 -0 0 0 0 0 -0 0 0 -0 0 0 0 0 0 0 0 -0 0 0 0 0
0 0 -0 0 0 0 0 0 0 0 0 0 -0 -0 0 0 0 0 -0 -0 0 0 0 0 0 0 0 0 0 0 0 0
0 0 0 -0 0 0 0 0 0 0 0 -0 -0 0 -0 0 0 -0 -0 0 0 0 0 0 0 0 0 0 0 0 0 0
0 0 0 -0 0 0 0 0 0 -0 0 -0 -0 -0 0 0 0 0 0 0 0 0 0 0 0 0 0 0 0 0 0 0
-0 0 0 0 0 0 0 0 0 0 0 0 -0 -0 0 0 1 0 0 0 0 0 0 0 0 0 0 0 0 0 0 0
0 0 0 0 0 0 0 0 0 0 -0 0 0 0 0 1 0 0 0 0 0 -0 0 0 0 0 0 0 0 0 0 0
0 0 0 0 0 0 0 0 0 -0 -0 0 0 0 1 1 0 0 -0 -0 0 0 0 0 0 0 0 0 0 0 0 0
0 0 0 0 0 0 -0 0 -0 -0 0 0 0 0 0 0 0 0 -0 0 -0 0 0 0 0 1 0 0 0 0 0 0
0 -0 0 0 0 0 0 -0 0 0 0 0 0 0 0 0 0 -0 -0 -0 -0 0 0 1 1 1 1 1 1 0 0 1
0 -0 0 0 0 0 0 0 0 0 0 0 0 0 0 0 0 0 0 0 0 1 1 2 2 1 1 1 2 1 1 0
0 0 0 0 0 0 0 0 0 0 0 0 0 0 0 0 0 0 0 0 2 4 1 2 4 3 2 1 1 1 1 1
0 0 0 0 0 0 0 -0 0 0 0 0 0 0 0 1 1 0 1 1 1 2 2 2 3 3 3 2 1 1 1 1
0 0 0 0 0 0 0 0 0 0 0 0 0 0 1 1 1 1 2 3 3 1 3 3 2 2 2 2 2 2 2 2
0 0 0 0 0 0 0 0 0 0 0 0 1 1 1 1 2 2 1 1 2 2 3 4 2 3 3 2 2 1 2 2
Wind_Speed_500mb
6 7 18 9 12 18 22 4 16 17 33 17 0 10 14 36 45 40 57 58 57 53 49 46 43 39 35 32 28 24 21 17
3 21 37 18 17 9 4 11 14 59 25 24 12 58 31 55 43 41 58 59 57 53 49 46 43 40 36 31 28 23 20 17
9 22 29 30 23 18 6 3 18 45 30 47 42 40 42 57 45 43 60 61 57 51 48 44 41 39 36 32 27 22 18 16
12 21 21 23 38 31 9 7 28 55 30 23 6 19 62 53 49 40 62 64 61 55 48 44 40 38 36 32 28 22 18 16
19 26 24 18 38 22 18 14 15 36 15 25 35 29 52 42 36 38 58 67 64 60 53 46 41 38 35 32 28 24 19 16
16 17 27 19 21 23 20 15 25 21 13 16 29 33 43 51 57 43 40 61 67 63 59 53 48 42 37 33 29 25 21 17
20 18 21 35 19 18 6 10 21 18 23 17 28 30 41 59 62 56 48 48 65 64 60 56 52 49 43 37 32 29 26 21
25 23 16 30 34 31 14 11 7 30 29 33 50 45 43 67 65 63 55 49 67 69 64 58 55 52 49 45 40 34 28 22
48 55 45 25 27 35 23 9 19 22 42 45 42 36 41 62 68 67 50 42 52 68 63 59 57 53 50 47 41 36 30 26
59 59 52 12 18 28 27 20 28 16 34 43 38 33 40 60 65 69 58 43 26 56 57 56 52 51 44 41 39 36 32 28
50 53 54 24 15 16 32 36 26 15 42 49 49 48 44 46 51 45 54 32 27 28 41 47 44 35 29 29 38 32 33 29
50 52 36 12 16 23 27 37 36 36 27 31 44 40 38 46 36 72 57 30 48 47 41 42 42 38 31 19 23 23 18 16
33 27 14 35 13 14 33 37 46 44 37 27 21 11 30 45 46 38 38 67 59 68 57 49 50 34 39 20 16 24 23 18
18 27 38 23 19 15 42 46 48 42 44 31 6 29 36 52 79 58 68 44 42 59 69 51 65 33 39 27 28 30 29 31
28 29 22 26 19 17 47 38 54 38 24 21 43 38 31 18 23 33 25 37 60 65 72 59 54 60 52 50 42 43 42 46
23 26 17 23 15 15 40 35 42 30 19 19 52 44 41 33 25 29 39 27 43 45 53 52 44 44 60 54 56 47 46 43
31 33 23 21 17 15 29 18 23 26 19 52 52 42 43 39 31 19 26 33 28 40 37 37 41 46 42 57 53 53 50 50
29 31 11 13 11 13 11 9 30 39 38 64 58 50 44 35 20 20 13 19 30 27 37 38 31 36 36 30 38 54 55 55
17 24 15 13 11 12 8 30 37 20 39 66 56 49 47 41 37 28 23 19 22 22 22 33 30 22 25 27 31 37 41 50
20 12 18 4 11 12 12 23 16 39 74 65 61 63 59 50 38 29 19 13 10 17 28 24 29 37 36 40 38 34 40 42
Wind_Direction_500mb
161 219 240 249 246 222 195 109 351 85 91 91 301 60 321 194 164 166 164 163 163 163 161 160 155 153 150 147 146 141 135 127
138 254 268 231 206 200 17 112 36 132 106 114 93 189 158 170 170 176 167 165 165 166 165 163 161 158 156 155 155 149 143 135
265 256 261 267 215 140 151 185 102 94 133 152 151 170 171 183 185 184 172 168 167 169 168 167 165 162 160 160 160 158 153 144
267 269 275 283 163 168 140 31 82 105 97 118 87 162 177 185 185 193 179 173 170 171 171 169 168 166 164 165 165 166 165 159
271 286 300 294 166 158 155 115 72 127 95 132 150 109 156 178 194 186 181 177 176 172 172 172 171 170 169 170 170 173 176 170
281 284 286 320 72 85 81 85 116 121 152 175 157 158 151 171 193 185 183 186 181 177 175 175 174 174 175 176 178 181 184 182
271 281 295 342 12 63 119 87 86 117 147 154 199 183 156 165 189 188 189 192 192 183 181 180 179 177 179 182 185 191 194 193
252 270 319 338 5 346 24 34 55 137 148 135 153 171 169 170 183 191 195 202 199 190 185 185 185 184 184 188 191 196 199 201
275 283 297 324 343 330 336 12 330 175 157 148 168 173 180 181 187 201 203 202 199 194 190 189 191 190 192 196 198 201 204 206
264 277 298 316 331 321 331 316 324 88 176 162 171 176 195 194 191 184 198 207 215 204 195 194 195 198 202 205 207 211 214 213
261 275 276 297 294 281 305 307 316 298 175 186 188 199 203 203 191 164 161 188 220 214 202 202 202 190 198 216 225 225 228 228
298 284 287 262 258 276 271 285 289 282 279 205 193 209 214 212 185 181 192 192 223 225 210 204 200 210 209 217 217 208 218 216
291 280 262 283 276 246 258 253 263 253 262 250 271 270 185 124 157 170 164 173 218 222 205 197 198 207 211 203 219 218 228 234
282 265 269 234 254 228 264 244 246 255 228 236 187 136 149 119 129 151 172 179 214 200 209 195 193 186 194 200 198 214 220 228
278 245 243 203 237 242 255 271 226 231 185 222 112 111 109 148 174 148 118 159 179 208 210 201 195 205 199 196 196 211 219 235
251 274 248 232 206 234 252 274 231 183 175 130 112 101 98 95 107 151 197 166 172 201 214 212 218 215 222 221 212 216 229 236
289 289 318 172 179 236 255 254 142 157 191 132 114 113 109 96 93 131 162 182 199 200 208 208 218 219 219 223 221 220 222 231
283 285 306 298 233 218 273 277 201 180 186 135 128 120 116 114 111 77 113 144 174 198 221 235 221 228 229 240 241 230 230 233
264 307 317 317 293 220 237 290 279 141 182 140 133 129 123 110 101 98 90 101 158 187 199 223 234 216 226 243 233 237 236 238
273 285 285 52 285 276 219 245 264 135 123 127 127 115 108 107 108 102 99 104 135 193 199 201 220 227 228 232 235 234 239 254
Wind_Speed_850mb
6 7 18 9 12 18 22 4 16 17 33 17 0 10 14 36 45 40 57 58 57 53 49 46 43 39 35 32 28 24 21 17
3 21 37 18 17 9 4 11 14 59 25 24 12 58 31 55 43 41 58 59 57 53 49 46 43 40 36 31 28 23 20 17
9 22 29 30 23 18 6 3 18 45 30 47 42 40 42 57 45 43 60 61 57 51 48 44 41 39 36 32 27 22 18 16
12 21 21 23 38 31 9 7 28 55 30 23 6 19 62 53 49 40 62 64 61 55 48 44 40 38 36 32 28 22 18 16
19 26 24 18 38 22 18 14 15 36 15 25 35 29 52 42 36 38 58 67 64 60 53 46 41 38 35 32 28 24 19 16
16 17 27 19 21 23 20 15 25 21 13 16 29 33 43 51 57 43 40 61 67 63 59 53 48 42 37 33 29 25 21 17
20 18 21 35 19 18 6 10 21 18 23 17 28 30 41 59 62 56 48 48 65 64 60 56 52 49 43 37 32 29 26 21
25 23 16 30 34 31 14 11 7 30 29 33 50 45 43 67 65 63 55 49 67 69 64 58 55 52 49 45 40 34 28 22
48 55 45 25 27 35 23 9 19 22 42 45 42 36 41 62 68 67 50 42 52 68 63 59 57 53 50 47 41 36 30 26
59 59 52 12 18 28 27 20 28 16 34 43 38 33 40 60 65 69 58 43 26 56 57 56 52 51 44 41 39 36 32 28
50 53 54 24 15 16 32 36 26 15 42 49 49 48 44 46 51 45 54 32 27 28 41 47 44 35 29 29 38 32 33 29
50 52 36 12 16 23 27 37 36 36 27 31 44 40 38 46 36 72 57 30 48 47 41 42 42 38 31 19 23 23 18 16
33 27 14 35 13 14 33 37 46 44 37 27 21 11 30 45 46 38 38 67 59 68 57 49 50 34 39 20 16 24 23 18
18 27 38 23 19 15 42 46 48 42 44 31 6 29 36 52 79 58 68 44 42 59 69 51 65 33 39 27 28 30 29 31
28 29 22 26 19 17 47 38 54 38 24 21 43 38 31 18 23 33 25 37 60 65 72 59 54 60 52 50 42 43 42 46
23 26 17 23 15 15 40 35 42 30 19 19 52 44 41 33 25 29 39 27 43 45 53 52 44 44 60 54 56 47 46 43
31 33 23 21 17 15 29 18 23 26 19 52 52 42 43 39 31 19 26 33 28 40 37 37 41 46 42 57 53 53 50 50
29 31 11 13 11 13 11 9 30 39 38 64 58 50 44 35 20 20 13 19 30 27 37 38 31 36 36 30 38 54 55 55
17 24 15 13 11 12 8 30 37 20 39 66 56 49 47 41 37 28 23 19 22 22 22 33 30 22 25 27 31 37 41 50
20 12 18 4 11 12 12 23 16 39 74 65 61 63 59 50 38 29 19 13 10 17 28 24 29 37 36 40 38 34 40 42
Wind_Direction_850mb
161 219 240 249 246 222 195 109 351 85 91 91 301 60 321 194 164 166 164 163 163 163 161 160 155 153 150 147 146 141 135 127
138 254 268 231 206 200 17 112 36 132 106 114 93 189 158 170 170 176 167 165 165 166 165 163 161 158 156 155 155 149 143 135
265 256 261 267 215 140 151 185 102 94 133 152 151 170 171 183 185 184 172 168 167 169 168 167 165 162 160 160 160 158 153 144
267 269 275 283 163 168 140 31 82 105 97 118 87 162 177 185 185 193 179 173 170 171 171 169 168 166 164 165 165 166 165 159
271 286 300 294 166 158 155 115 72 127 95 132 150 109 156 178 194 186 181 177 176 172 172 172 171 170 169 170 170 173 176 170
281 284 286 320 72 85 81 85 116 121 152 175 157 158 151 171 193 185 183 186 181 177 175 175 174 174 175 176 178 181 184 182
271 281 295 342 12 63 119 87 86 117 147 154 199 183 156 165 189 188 189 192 192 183 181 180 179 177 179 182 185 191 194 193
252 270 319 338 5 346 24 34 55 137 148 135 153 171 169 170 183 191 195 202 199 190 185 185 185 184 184 188 191 196 199 201
275 283 297 324 343 330 336 12 330 175 157 148 168 173 180 181 187 201 203 202 199 194 190 189 191 190 192 196 198 201 204 206
264 277 298 316 331 321 331 316 324 88 176 162 171 176 195 194 191 184 198 207 215 204 195 194 195 198 202 205 207 211 214 213
261 275 276 297 294 281 305 307 316 298 175 186 188 199 203 203 191 164 161 188 220 214 202 202 202 190 198 216 225 225 228 228
298 284 287 262 258 276 271 285 289 282 279 205 193 209 214 212 185 181 192 192 223 225 210 204 200 210 209 217 217 208 218 216
291 280 262 283 276 246 258 253 263 253 262 250 271 270 185 124 157 170 164 173 218 222 205 197 198 207 211 203 219 218 228 234
282 265 269 234 254 228 264 244 246 255 228 236 187 136 149 119 129 151 172 179 214 200 209 195 193 186 194 200 198 214 220 228
278 245 243 203 237 242 255 271 226 231 185 222 112 111 109 148 174 148 118 159 179 208 210 201 195 205 199 196 196 211 219 235
251 274 248 232 206 234 252 274 231 183 175 130 112 101 98 95 107 151 197 166 172 201 214 212 218 215 222 221 212 216 229 236
289 289 318 172 179 236 255 254 142 157 191 132 114 113 109 96 93 131 162 182 199 200 208 208 218 219 219 223 221 220 222 231
283 285 306 298 233 218 273 277 201 180 186 135 128 120 116 114 111 77 113 144 174 198 221 235 221 228 229 240 241 230 230 233
264 307 317 317 293 220 237 290 279 141 182 140 133 129 123 110 101 98 90 101 158 187 199 223 234 216 226 243 233 237 236 238
273 285 285 52 285 276 219 245 264 135 123 127 127 115 108 107 108 102 99 104 135 193 199 201 220 227 228 232 235 234 239 254